Location: *
(43.9905°S, 176.4941°W)
Time: 08:00:57
(UTC+00:00)

USA 229 - Pass Details

Date: 08 December 2019
Orbit: 994 x 1218 km, 63.4° (Epoch: 16 January)

Event Time Altitude Azimuth Distance (km) Brightness Sun altitude
Exits shadow 11:09:11 37° 35° (NE) 1,786 4.4 -23.0°
Maximum altitude 11:10:53 42° 65° (ENE) 1,656 4.4 -23.0°
Drops below altitude 10° 11:17:42 10° 131° (SE) 3,074 6.5 -23.1°
Sets 11:20:30 0° 138° (SE) 4,008 7.3 -23.2°
